Location: Unspecified
(50.1700°N, 6.8600°E)
Time: 14:24:26
(UTC+00:00)

Cosmos 2369 Rocket - Pass Details

Date: 24 January 2019
Orbit: 830 x 852 km, 71.0° (Epoch: 21 February)

Event Time Altitude Azimuth Distance (km) Brightness Sun altitude
Exits shadow 05:26:29 27° 302° (WNW) 1,596 3.1 -17.5°
Maximum altitude 05:27:19 28° 317° (NW) 1,561 3.2 -17.4°
Drops below altitude 10° 05:32:09 10° 15° (NNE) 2,476 4.7 -16.6°
Sets 05:34:58 0° 27° (NNE) 3,411 5.6 -16.2°
